Regional Weather Roundup
Issued by NWS Sterling, VA

Home | Current Version | Previous Version | Graphics & Text | Print | Product List | Glossary On
Versions: 1 2 3 4 5 6 7 8 9 10 11 12 13 14 15 16 17 18 19 20 21 22 23 24 25 26 27 28 29 30 31 32 33 34 35 36 37 38 39 40 41 42 43 44 45 46 47 48 49 50
331
ASUS41 KLWX 241711
RWRLWX

REGIONAL WEATHER ROUNDUP
NATIONAL WEATHER SERVICE BALTIMORE MD/WASHINGTON DC
1200 PM EST TUE JAN 24 2017

Note: "FAIR" indicates few or no clouds below 12,000 feet
with no significant weather and/or obstructions to visibility.
 TC=TEMPERATURE CELSIUS

 * =Non NWS site. Station does not report precipitation (e.g. rain,
    snow, etc.), thunder, or fog.

DCZ001-MDZ009-015-VAZ040>042-051-053>054-241800-
WASHINGTON METRO

CITY           SKY/WX    TMP DP  RH WIND       PRES   REMARKS
WASHINGTON NAT CLOUDY    47  36  65 NW17G28   29.53F
DULLES         CLOUDY    45  34  65 NW18G24   29.53F
ANDREWS AFB    PTSUNNY   45  35  68 NW21G30   29.50F
FT BELVOIR     CLOUDY    47  35  62 NW17G32   29.53F
QUANTICO       CLOUDY    46  36  68 NW23G36   29.56F
COLLEGE PARK*  CLOUDY    45  34  65 NW18      29.50F
LEESBURG*      CLOUDY    46  37  71 NW21G28   29.55F
MANASSAS*      CLOUDY   N/A N/A N/A NW12G21   29.57F
GAITHERSBURG*  CLOUDY    43  34  70 NW18G28   29.54F

$$

MDZ006>007-011-014-241800-
BALTIMORE METRO

CITY           SKY/WX    TMP DP  RH WIND       PRES   REMARKS
BWI AIRPORT    CLOUDY    46  37  71 NW14      29.48F
MD SCIENCE CTR   N/A     46  34  62 MISG      29.49F
MARTIN STATE   PTSUNNY   48  39  71 NW20G29   29.49S
ANNAPOLIS      MOSUNNY   47  35  63 NW14G22   29.48F
FORT MEADE*    CLOUDY    46  37  71 NW8G23    29.51F

$$

MDZ012-015-019>023-241800-
MARYLAND EASTERN SHORE

CITY           SKY/WX    TMP DP  RH WIND       PRES   REMARKS
OCEAN CITY     CLOUDY    40  39  97 NW14G22   29.42S FOG
SALISBURY      CLOUDY    42  36  79 NW16G25   29.44S
BAY BRIDGE AP* MOSUNNY   46  37  71 NW13      29.47F
CAMBRIDGE*     PTSUNNY   43  36  75 NW13      29.46F
EASTON*        PTSUNNY   46  36  66 N15G23    29.49F

$$

MDZ017>025-241800-
SOUTHERN MARYLAND

CITY           SKY/WX    TMP DP  RH WIND       PRES   REMARKS
PATUXENT RIVER PTSUNNY   46  37  71 NW21      29.49S
ST INIGOES     CLOUDY    46  36  68 NW13G24   29.49F
LEONARDTOWN*   CLOUDY    45  34  65 W15G24    29.51F

$$

MDZ003>005-241800-
NORTH CENTRAL MARYLAND

CITY           SKY/WX    TMP DP  RH WIND       PRES   REMARKS
FREDERICK*     PTSUNNY   46  37  71 NW15G24   29.56F
HAGERSTOWN APT CLOUDY    42  34  73 NW14      29.54F
WESTMINSTER*   CLOUDY    41  36  81 NW10G22   29.48F

$$

MDZ501>502-241800-
WESTERN MARYLAND

CITY           SKY/WX    TMP DP  RH WIND       PRES   REMARKS
OAKLAND*       FOG       32  32 100 W12G22    29.58S VSB<1/4 WCI  23
CUMBERLAND*    CLOUDY    43  36  75 W3        29.63S

$$

VAZ025>031-241800-
SHENANDOAH VALLEY

CITY           SKY/WX    TMP DP  RH WIND       PRES   REMARKS
WINCHESTER*    CLOUDY    41  34  75 NW10      29.56F
FRONT ROYAL*   CLOUDY    45  36  70 NW12      29.55F
LURAY*         CLOUDY    45  37  76 W9        29.58S
NEW MARKET*    CLOUDY    45  32  59 NW3       29.59S
STAUNTON*      CLOUDY    50  35  57 NW9       29.60F
WAYNESBORO*    CLOUDY    47  32  57 NW16G24   29.59S

$$

WVZ021-048>050-054>055-241800-
EASTERN WEST VIRGINIA PANHANDLE

CITY           SKY/WX    TMP DP  RH WIND       PRES   REMARKS
MARTINSBURG    CLOUDY    42  34  73 NW9       29.56F
PETERSBURG*    CLOUDY    47  35  65 N8        29.63R

$$

VAZ036>039-050-241800-
CENTRAL FOOTHILLS

CITY           SKY/WX    TMP DP  RH WIND       PRES   REMARKS
CHARLOTTESVILL PTSUNNY   51  35  54 VRB3      29.58F
CULPEPER*      CLOUDY    48  36  62 NW6       29.57F
ORANGE*          N/A     48  34  57 W7        29.58F
GORDONSVILLE*  CLOUDY    47  35  61 NW3       29.57F
WARRENTON*     CLOUDY    47  33  59 NW10G16   29.56F

$$

VAZ055>057-241800-
NORTH AND CENTRAL PIEDMONT

CITY           SKY/WX    TMP DP  RH WIND       PRES   REMARKS
FREDERICKSBRG* CLOUDY    47  37  68 NW14G22   29.55F
STAFFORD*      CLOUDY    44  37  74 NW17G26   29.60F

$$

NCZ024-NYZ072-PAZ021-071-VAZ022-071-241800-
OTHER REGIONAL OBSERVATIONS

CITY           SKY/WX    TMP DP  RH WIND       PRES   REMARKS
NEW YORK CITY  MIX PCPN  36  36 100 N13       29.34F FOG     WCI  27
PHILADELPHIA   DRIZZLE   41  37  86 N18G26    29.41F FOG
PITTSBURGH     DRIZZLE   39  37  92 NW14      29.67F
ROANOKE        CLOUDY    49  36  61 W21G26    29.69S
RICHMOND       CLOUDY    47  34  60 NW17G25   29.56F
RALEIGH        MOSUNNY   57  37  47 NW6G18    29.63F

$$

ANZ530>537-241800-
MARINE OBSERVATIONS

STATION/POSITION TIME  TEMP    WIND        PRES
                       AIR SEA DIR/SP/G
                 (UTC) (F)     (DEG/KT/KT) (MB)
THOMAS PT LIGHT  1700   45 40  330/ 22/ 25   N/A
BALT KEY BRIDGE  1642   43     300/ 19/ 21  998.0F
COVE POINT       1642   43     350/ 22/ 26  999.0F
LEWISETTA        1642   43 44  320/ 19/ 24  999.2R
SOLOMONS ISLAND  1642   44 42  310/ 12/ 20   N/A
PINEY POINT      1648          330/ 18/ 20   N/A

$$





USA.gov is the U.S. government's official web portal to all federal, state and local government web resources and services.